STARLINK-11204 [DTC]

Last updated on Tue Oct 01 2024 00:02:04 GMT+0000 (Coordinated Universal Time)

1 60931U 24155H 24274.38763873 -.00001862 00000+0 -73832-5 0 9996 2 60931 53.1535 51.1147 0001099 86.6379 273.4768 15.76717752 5897
UTC large
Height (km)
Speed (km/s)
/
Latitude / Longitude
Inclination (degrees)
Orbital Period (minutes)
Azimuth
Elevation
Range (km)
Doppler Factor

Next 0 passes for location: London (51.5072 / 0.1276)

Sorry there are no passes over London.